| time (UTC) | temp F | wind direction | speed knots | gust knots | rain 1hr in | rain 24hr in | rain mn in | humidity % | barometer mb |
| 20260505171542 | 58 | 131 | 0.9 | 2.6 | 0.00 | 0.00 | 0.00 | 67 | 1015.2 |
| 20260505170614 | 58 | 119 | 0.9 | 2.6 | 0.00 | 0.00 | 0.00 | 67 | 1015.2 |
| 20260505165604 | 58 | 132 | 0.9 | 2.6 | 0.00 | 0.00 | 0.00 | 67 | 1015.6 |
| 20260505164443 | 58 | 135 | 0.9 | 4.3 | 0.00 | 0.00 | 0.00 | 66 | 1015.2 |
| 20260505163359 | 58 | 103 | 2.6 | 2.6 | 0.00 | 0.00 | 0.00 | 67 | 1015.4 |
| 20260505162412 | 58 | 161 | 0.9 | 2.6 | 0.00 | 0.00 | 0.00 | 67 | 1015.3 |
| 20260505161401 | 58 | 112 | 0.9 | 2.6 | 0.00 | 0.00 | 0.00 | 66 | 1015.3 |
| 20260505160413 | 58 | 114 | 2.6 | 5.2 | 0.00 | 0.00 | 0.00 | 66 | 1015.2 |
| 20260505153342 | 59 | 212 | 2.6 | 2.6 | 0.00 | 0.00 | 0.00 | 64 | 1015.4 |
| 20260505152259 | 59 | 137 | 0.9 | 2.6 | 0.00 | 0.00 | 0.00 | 65 | 1015.4 |
| 20260505151418 | 59 | 133 | 0.9 | 1.7 | 0.00 | 0.00 | 0.00 | 63 | 1015.4 |
| 20260505150238 | 59 | 116 | 1.7 | 4.3 | 0.00 | 0.00 | 0.00 | 65 | 1015.3 |
| 20260505140213 | 60 | 131 | 0.0 | 0.9 | 0.00 | 0.00 | 0.00 | 63 | 1015.7 |
| 20260505130116 | 60 | 181 | 0.9 | 1.7 | 0.00 | 0.00 | 0.00 | 64 | 1015.9 |
| 20260505124118 | 59 | 187 | 0.9 | 1.7 | 0.00 | 0.00 | 0.00 | 66 | 1015.6 |
| 20260505123045 | 60 | 167 | 0.0 | 1.7 | 0.00 | 0.00 | 0.00 | 64 | 1015.8 |
| 20260505121946 | 60 | 147 | 0.9 | 1.7 | 0.00 | 0.00 | 0.00 | 66 | 1016.0 |
| 20260505121019 | 60 | 147 | 1.7 | 2.6 | 0.00 | 0.00 | 0.00 | 64 | 1015.8 |
| 20260505120027 | 61 | 140 | 0.9 | 1.7 | 0.00 | 0.00 | 0.00 | 63 | 1015.9 |
| 20260505115020 | 61 | 0.0 | 0.9 | 0.00 | 0.00 | 0.00 | 64 | 1015.8 | |
| 20260505113948 | 59 | 134 | 0.9 | 2.6 | 0.00 | 0.00 | 0.00 | 69 | 1015.9 |
| 20260505112925 | 58 | 195 | 0.9 | 4.3 | 0.00 | 0.00 | 0.00 | 68 | 1016.0 |
| 20260505111821 | 59 | 128 | 0.9 | 1.7 | 0.00 | 0.00 | 0.00 | 68 | 1016.3 |
| 20260505110905 | 60 | 194 | 1.7 | 2.6 | 0.00 | 0.00 | 0.00 | 67 | 1016.1 |
| 20260505101843 | 57 | 192 | 2.6 | 4.3 | 0.00 | 0.00 | 0.00 | 73 | 1016.7 |
| 20260505100907 | 57 | 168 | 0.9 | 1.7 | 0.00 | 0.00 | 0.00 | 74 | 1016.5 |
| 20260505095824 | 56 | 0.0 | 0.9 | 0.00 | 0.00 | 0.00 | 77 | 1016.6 | |
| 20260505094909 | 56 | 154 | 0.9 | 1.7 | 0.00 | 0.00 | 0.00 | 76 | 1016.6 |
| 20260505093825 | 55 | 186 | 0.9 | 0.9 | 0.00 | 0.00 | 0.00 | 78 | 1016.7 |
| 20260505092929 | 55 | 170 | 0.0 | 1.7 | 0.00 | 0.00 | 0.00 | 78 | 1016.5 |
| 20260505091847 | 55 | 100 | 0.9 | 0.9 | 0.00 | 0.00 | 0.00 | 79 | 1016.6 |
| 20260505090910 | 55 | 170 | 0.9 | 1.7 | 0.00 | 0.00 | 0.00 | 78 | 1016.7 |
| 20260505085827 | 56 | 172 | 0.0 | 1.7 | 0.00 | 0.00 | 0.00 | 76 | 1016.7 |
| 20260505084910 | 55 | 131 | 0.0 | 0.9 | 0.00 | 0.00 | 0.00 | 78 | 1016.6 |
| 20260505083828 | 54 | 157 | 1.7 | 1.7 | 0.00 | 0.00 | 0.00 | 79 | 1016.7 |
| 20260505082911 | 52 | 141 | 1.7 | 4.3 | 0.00 | 0.00 | 0.00 | 81 | 1016.9 |
| 20260505081828 | 53 | 124 | 1.7 | 1.7 | 0.00 | 0.00 | 0.00 | 80 | 1017.0 |
| 20260505080756 | 52 | 134 | 0.9 | 5.2 | 0.00 | 0.00 | 0.00 | 80 | 1016.9 |
| 20260505075728 | 52 | 139 | 0.9 | 2.6 | 0.00 | 0.00 | 0.00 | 82 | 1017.0 |
| 20260505074813 | 50 | 150 | 0.9 | 1.7 | 0.00 | 0.00 | 0.00 | 84 | 1016.9 |
| 20260505073730 | 50 | 0.0 | 0.9 | 0.00 | 0.00 | 0.00 | 87 | 1016.8 | |
| 20260505072813 | 49 | 139 | 0.0 | 1.7 | 0.00 | 0.00 | 0.00 | 88 | 1016.9 |
| 20260505071730 | 49 | 136 | 0.9 | 0.9 | 0.00 | 0.00 | 0.00 | 89 | 1016.9 |
| 20260505070814 | 48 | 133 | 0.9 | 1.7 | 0.00 | 0.00 | 0.00 | 90 | 1016.9 |
| 20260505065731 | 48 | 119 | 0.0 | 1.7 | 0.00 | 0.00 | 0.00 | 93 | 1016.9 |
| 20260505064816 | 48 | 0.0 | 0.9 | 0.00 | 0.00 | 0.00 | 94 | 1017.0 | |
| 20260505063732 | 48 | 142 | 0.0 | 0.9 | 0.00 | 0.00 | 0.00 | 96 | 1017.0 |
| 20260505062816 | 48 | 113 | 1.7 | 1.7 | 0.00 | 0.00 | 0.00 | 97 | 1017.0 |
| 20260505061733 | 48 | 0.0 | 0.9 | 0.00 | 0.00 | 0.00 | 98 | 1017.1 | |
| 20260505060818 | 47 | 0.0 | 0.0 | 0.00 | 0.00 | 0.00 | 98 | 1017.0 | |
| 20260505055734 | 46 | 0.0 | 0.0 | 0.00 | 0.00 | 0.00 | 98 | 1017.2 | |
| 20260505054703 | 46 | 0.0 | 0.0 | 0.00 | 0.00 | 0.00 | 98 | 1017.4 | |
| 20260505053636 | 46 | 0.0 | 0.0 | 0.00 | 0.00 | 0.00 | 98 | 1017.3 | |
| 20260505052739 | 46 | 0.0 | 0.0 | 0.00 | 0.00 | 0.00 | 98 | 1017.4 | |
| 20260505051735 | 46 | 0.0 | 0.0 | 0.00 | 0.00 | 0.00 | 98 | 1017.2 | |
| 20260505050720 | 45 | 0.0 | 0.0 | 0.00 | 0.00 | 0.00 | 98 | 1017.4 | |
| 20260505041606 | 45 | 312 | 0.0 | 0.9 | 0.00 | 0.00 | 0.00 | 98 | 1017.3 |
| 20260505040522 | 45 | 289 | 0.0 | 0.9 | 0.00 | 0.00 | 0.00 | 98 | 1017.2 |
| 20260505035647 | 44 | 0.0 | 0.0 | 0.00 | 0.00 | 0.00 | 98 | 1017.1 | |
| 20260505034523 | 44 | 0.0 | 0.0 | 0.00 | 0.00 | 0.00 | 97 | 1017.0 | |
| 20260505033627 | 44 | 0.0 | 0.0 | 0.00 | 0.00 | 0.00 | 97 | 1016.9 | |
| 20260505032524 | 44 | 0.0 | 0.0 | 0.00 | 0.00 | 0.00 | 97 | 1016.9 | |
| 20260505031608 | 45 | 0.0 | 0.0 | 0.00 | 0.00 | 0.00 | 97 | 1017.0 | |
| 20260505030605 | 45 | 0.0 | 0.0 | 0.00 | 0.00 | 0.00 | 97 | 1016.9 | |
| 20260505025609 | 46 | 0.0 | 0.0 | 0.00 | 0.00 | 0.00 | 97 | 1017.3 | |
| 20260505024525 | 46 | 0.0 | 0.0 | 0.00 | 0.00 | 0.00 | 97 | 1017.2 | |
| 20260505023610 | 47 | 0.0 | 0.9 | 0.00 | 0.00 | 0.00 | 97 | 1017.2 | |
| 20260505022526 | 47 | 157 | 0.9 | 1.7 | 0.00 | 0.00 | 0.00 | 97 | 1017.1 |
| 20260505021631 | 47 | 136 | 0.9 | 0.9 | 0.00 | 0.00 | 0.00 | 97 | 1017.2 |
| 20260505020527 | 46 | 149 | 0.0 | 0.9 | 0.00 | 0.00 | 0.00 | 97 | 1017.3 |
| 20260505015611 | 46 | 0.0 | 0.9 | 0.00 | 0.00 | 0.00 | 97 | 1017.5 | |
| 20260505014528 | 46 | 149 | 0.0 | 0.9 | 0.00 | 0.00 | 0.00 | 97 | 1017.6 |
| 20260505013632 | 45 | 0.0 | 0.0 | 0.00 | 0.00 | 0.00 | 96 | 1017.7 | |
| 20260505012529 | 46 | 0.0 | 0.0 | 0.00 | 0.00 | 0.00 | 96 | 1017.7 | |
| 20260505011613 | 46 | 0.0 | 0.0 | 0.00 | 0.00 | 0.00 | 96 | 1017.7 | |
| 20260505010550 | 46 | 0.0 | 0.0 | 0.00 | 0.00 | 0.00 | 96 | 1017.6 | |
| 20260505005614 | 47 | 0.0 | 0.0 | 0.00 | 0.00 | 0.00 | 96 | 1017.6 | |
| 20260505004530 | 46 | 0.0 | 0.0 | 0.00 | 0.00 | 0.00 | 96 | 1017.5 | |
| 20260505003615 | 47 | 0.0 | 0.0 | 0.00 | 0.00 | 0.00 | 95 | 1017.5 | |
| 20260505002532 | 47 | 0.0 | 0.0 | 0.00 | 0.00 | 0.00 | 95 | 1017.7 | |
| 20260505001616 | 47 | 0.0 | 0.0 | 0.00 | 0.00 | 0.00 | 95 | 1017.5 | |
| 20260505000532 | 47 | 0.0 | 0.0 | 0.00 | 0.00 | 0.00 | 95 | 1017.7 | |
| 20260504235637 | 47 | 0.0 | 0.0 | 0.00 | 0.00 | 0.00 | 94 | 1018.0 | |
| 20260504234533 | 48 | 0.0 | 0.0 | 0.00 | 0.00 | 0.00 | 94 | 1018.1 | |
| 20260504233617 | 48 | 0.0 | 0.0 | 0.00 | 0.00 | 0.00 | 94 | 1018.1 | |
| 20260504232533 | 49 | 0.0 | 0.0 | 0.00 | 0.00 | 0.00 | 94 | 1018.2 | |
| 20260504231618 | 50 | 0.0 | 0.0 | 0.00 | 0.00 | 0.00 | 94 | 1018.2 | |
| 20260504230534 | 49 | 0.0 | 0.0 | 0.00 | 0.00 | 0.00 | 93 | 1018.1 | |
| 20260504225519 | 50 | 0.0 | 0.0 | 0.00 | 0.00 | 0.00 | 92 | 1018.3 | |
| 20260504224435 | 50 | 0.0 | 0.0 | 0.00 | 0.00 | 0.00 | 92 | 1018.2 | |
| 20260504223520 | 51 | 0.0 | 0.0 | 0.00 | 0.00 | 0.00 | 91 | 1018.2 | |
| 20260504222436 | 52 | 0.0 | 0.0 | 0.00 | 0.00 | 0.00 | 90 | 1018.4 | |
| 20260504221521 | 53 | 0.0 | 0.9 | 0.00 | 0.00 | 0.00 | 89 | 1018.6 | |
| 20260504220437 | 53 | 0.0 | 0.0 | 0.00 | 0.00 | 0.00 | 89 | 1018.3 | |
| 20260504215521 | 53 | 191 | 0.0 | 0.9 | 0.00 | 0.00 | 0.00 | 88 | 1018.3 |
| 20260504214438 | 53 | 191 | 0.9 | 0.9 | 0.00 | 0.00 | 0.00 | 88 | 1018.2 |
| 20260504213522 | 53 | 196 | 0.0 | 0.9 | 0.00 | 0.00 | 0.00 | 88 | 1018.1 |
| 20260504212439 | 53 | 0.0 | 0.9 | 0.00 | 0.00 | 0.00 | 88 | 1018.3 | |
| 20260504211543 | 53 | 171 | 0.0 | 0.9 | 0.00 | 0.00 | 0.00 | 89 | 1018.2 |
| 20260504210500 | 53 | 193 | 0.0 | 1.7 | 0.00 | 0.00 | 0.00 | 88 | 1018.2 |
| 20260504205525 | 54 | 173 | 0.9 | 1.7 | 0.00 | 0.00 | 0.00 | 88 | 1018.2 |
| 20260504204501 | 54 | 187 | 0.9 | 1.7 | 0.00 | 0.00 | 0.00 | 88 | 1018.2 |
| 20260504203525 | 55 | 180 | 0.9 | 0.9 | 0.00 | 0.01 | 0.00 | 87 | 1018.3 |
| 20260504202441 | 55 | 133 | 0.9 | 1.7 | 0.00 | 0.03 | 0.00 | 86 | 1018.3 |
| 20260504201546 | 55 | 158 | 0.9 | 0.9 | 0.00 | 0.06 | 0.00 | 86 | 1018.2 |
| 20260504200502 | 55 | 0.0 | 0.9 | 0.00 | 0.12 | 0.00 | 86 | 1018.2 | |
| 20260504195527 | 55 | 0.0 | 0.0 | 0.00 | 0.14 | 0.00 | 86 | 1018.0 | |
| 20260504194443 | 55 | 193 | 0.0 | 0.9 | 0.00 | 0.14 | 0.00 | 85 | 1018.1 |
| 20260504193527 | 55 | 193 | 0.0 | 0.9 | 0.00 | 0.14 | 0.00 | 86 | 1018.1 |
| 20260504192504 | 55 | 0.0 | 0.0 | 0.00 | 0.14 | 0.00 | 85 | 1017.9 | |
| 20260504191528 | 55 | 193 | 0.9 | 0.9 | 0.00 | 0.14 | 0.00 | 85 | 1018.0 |
| 20260504190444 | 55 | 193 | 0.0 | 0.9 | 0.00 | 0.14 | 0.00 | 84 | 1017.6 |
| 20260504185529 | 55 | 0.0 | 0.0 | 0.00 | 0.14 | 0.00 | 84 | 1017.7 | |
| 20260504184445 | 56 | 0.0 | 0.0 | 0.00 | 0.14 | 0.00 | 84 | 1017.6 | |
| 20260504183530 | 56 | 0.0 | 0.0 | 0.00 | 0.14 | 0.00 | 84 | 1017.7 | |
| 20260504182446 | 56 | 195 | 0.9 | 0.9 | 0.00 | 0.14 | 0.00 | 85 | 1017.6 |
| 20260504181551 | 56 | 0.0 | 0.0 | 0.00 | 0.14 | 0.00 | 84 | 1017.5 | |
| 20260504180447 | 56 | 161 | 0.9 | 0.9 | 0.00 | 0.14 | 0.00 | 84 | 1017.2 |
| 20260504175532 | 56 | 0.0 | 0.9 | 0.00 | 0.14 | 0.00 | 84 | 1017.2 | |
| 20260504174448 | 56 | 153 | 0.0 | 0.9 | 0.00 | 0.14 | 0.00 | 84 | 1017.3 |
| 20260504173406 | 57 | 0.0 | 0.9 | 0.00 | 0.14 | 0.00 | 85 | 1017.3 | |
| 20260504172333 | 56 | 0.0 | 0.0 | 0.00 | 0.14 | 0.00 | 85 | 1017.2 |